Time,TemperatureF,DewpointF,PressureIn,WindDirection,WindDirectionDegrees,WindSpeedMPH,WindSpeedGustMPH,Humidity,HourlyPrecipIn,Conditions,Clouds,dailyrainin,SolarRadiationWatts/m^2,SoftwareType,DateUTC
2013-10-05 00:02:00,66.6,64.5,30.09,SW,215,0.0,0.0,93,0.00,,,0.00,0,Wunderground v.1.15,2013-10-05 04:02:00,
2013-10-05 00:04:00,66.6,64.5,30.09,SW,215,0.0,0.0,93,0.00,,,0.00,0,Wunderground v.1.15,2013-10-05 04:04:00,
2013-10-05 00:08:00,66.4,64.3,30.09,SW,215,0.0,0.0,93,0.00,,,0.00,0,Wunderground v.1.15,2013-10-05 04:08:00,
2013-10-05 00:12:00,66.4,64.3,30.09,SW,215,0.0,0.0,93,0.00,,,0.00,0,Wunderground v.1.15,2013-10-05 04:12:00,
2013-10-05 00:18:00,66.3,64.2,30.08,SW,215,0.0,0.0,93,0.00,,,0.00,0,Wunderground v.1.15,2013-10-05 04:18:00,
2013-10-05 00:20:00,66.1,64.0,30.08,SW,215,0.0,0.0,93,0.00,,,0.00,0,Wunderground v.1.15,2013-10-05 04:20:00,
2013-10-05 00:26:00,66.1,64.3,30.08,SW,215,0.0,2.0,94,0.00,,,0.00,0,Wunderground v.1.15,2013-10-05 04:26:00,
2013-10-05 00:32:00,66.0,64.2,30.08,SW,215,0.0,0.0,94,0.00,,,0.00,0,Wunderground v.1.15,2013-10-05 04:32:00,
2013-10-05 00:38:00,66.0,64.2,30.08,SW,215,0.0,0.0,94,0.00,,,0.00,0,Wunderground v.1.15,2013-10-05 04:38:00,
2013-10-05 00:44:00,65.8,64.3,30.08,SW,215,0.0,0.0,95,0.00,,,0.00,0,Wunderground v.1.15,2013-10-05 04:44:00,
2013-10-05 00:50:00,65.8,64.3,30.08,SW,215,0.0,0.0,95,0.00,,,0.00,0,Wunderground v.1.15,2013-10-05 04:50:00,
2013-10-05 00:56:00,65.6,64.1,30.08,SW,215,0.0,0.0,95,0.00,,,0.00,0,Wunderground v.1.15,2013-10-05 04:56:00,
2013-10-05 01:02:00,65.6,64.1,30.08,SW,215,0.0,0.0,95,0.00,,,0.00,0,Wunderground v.1.15,2013-10-05 05:02:00,
2013-10-05 01:08:00,65.5,64.0,30.08,SW,215,0.0,0.0,95,0.00,,,0.00,0,Wunderground v.1.15,2013-10-05 05:08:00,
2013-10-05 01:14:00,65.3,63.8,30.08,SW,215,0.0,0.0,95,0.00,,,0.00,0,Wunderground v.1.15,2013-10-05 05:14:00,
2013-10-05 01:20:00,65.3,63.8,30.08,SW,215,0.0,0.0,95,0.00,,,0.00,0,Wunderground v.1.15,2013-10-05 05:20:00,
2013-10-05 01:26:00,65.2,63.7,30.08,SW,215,0.0,2.0,95,0.00,,,0.00,0,Wunderground v.1.15,2013-10-05 05:26:00,
2013-10-05 01:32:00,65.0,63.5,30.07,SW,215,1.0,1.0,95,0.00,,,0.00,0,Wunderground v.1.15,2013-10-05 05:32:00,
2013-10-05 01:38:00,65.0,63.8,30.07,SW,215,1.0,2.0,96,0.00,,,0.00,0,Wunderground v.1.15,2013-10-05 05:38:00,
2013-10-05 01:44:00,65.0,63.8,30.07,SW,215,1.0,1.0,96,0.00,,,0.00,0,Wunderground v.1.15,2013-10-05 05:44:00,
2013-10-05 01:50:00,65.0,63.8,30.08,SW,215,0.0,1.0,96,0.00,,,0.00,0,Wunderground v.1.15,2013-10-05 05:50:00,
2013-10-05 01:56:00,65.0,63.8,30.08,SW,215,0.0,1.0,96,0.00,,,0.00,0,Wunderground v.1.15,2013-10-05 05:56:00,
2013-10-05 02:02:00,64.8,63.6,30.08,SW,215,1.0,2.0,96,0.00,,,0.00,0,Wunderground v.1.15,2013-10-05 06:02:00,
2013-10-05 02:08:00,64.7,63.5,30.08,SW,215,0.0,2.0,96,0.00,,,0.00,0,Wunderground v.1.15,2013-10-05 06:08:00,
2013-10-05 02:14:00,64.5,63.3,30.08,SW,215,0.0,0.0,96,0.00,,,0.00,0,Wunderground v.1.15,2013-10-05 06:14:00,
2013-10-05 02:20:00,64.5,63.3,30.08,SW,215,0.0,0.0,96,0.00,,,0.00,0,Wunderground v.1.15,2013-10-05 06:20:00,
2013-10-05 02:26:00,64.3,63.1,30.08,SW,215,0.0,2.0,96,0.00,,,0.00,0,Wunderground v.1.15,2013-10-05 06:26:00,
2013-10-05 02:32:00,64.3,63.4,30.08,SW,215,1.0,1.0,97,0.00,,,0.00,0,Wunderground v.1.15,2013-10-05 06:32:00,
2013-10-05 02:38:00,64.3,63.4,30.08,SW,215,0.0,1.0,97,0.00,,,0.00,0,Wunderground v.1.15,2013-10-05 06:38:00,
2013-10-05 02:44:00,64.2,63.3,30.08,SW,215,0.0,0.0,97,0.00,,,0.00,0,Wunderground v.1.15,2013-10-05 06:44:00,
2013-10-05 02:50:00,64.2,63.3,30.07,SW,215,0.0,0.0,97,0.00,,,0.00,0,Wunderground v.1.15,2013-10-05 06:50:00,
2013-10-05 02:56:00,64.0,63.1,30.07,SW,215,0.0,0.0,97,0.00,,,0.00,0,Wunderground v.1.15,2013-10-05 06:56:00,
2013-10-05 03:02:00,63.9,63.0,30.07,SW,215,0.0,0.0,97,0.00,,,0.00,0,Wunderground v.1.15,2013-10-05 07:02:00,
2013-10-05 03:08:00,63.9,63.0,30.07,SW,215,0.0,0.0,97,0.00,,,0.00,0,Wunderground v.1.15,2013-10-05 07:08:00,
2013-10-05 03:14:00,63.7,62.8,30.07,SW,215,0.0,0.0,97,0.00,,,0.00,0,Wunderground v.1.15,2013-10-05 07:14:00,
2013-10-05 03:20:00,63.7,62.8,30.07,SW,215,0.0,0.0,97,0.00,,,0.00,0,Wunderground v.1.15,2013-10-05 07:20:00,
2013-10-05 03:26:00,63.5,62.6,30.07,SW,215,0.0,0.0,97,0.00,,,0.00,0,Wunderground v.1.15,2013-10-05 07:26:00,
2013-10-05 03:32:00,63.5,62.6,30.07,SW,215,0.0,0.0,97,0.00,,,0.00,0,Wunderground v.1.15,2013-10-05 07:32:00,
2013-10-05 03:38:00,63.5,62.6,30.07,SW,215,0.0,0.0,97,0.00,,,0.00,0,Wunderground v.1.15,2013-10-05 07:38:00,
2013-10-05 03:44:00,63.4,62.5,30.07,SW,215,0.0,0.0,97,0.00,,,0.00,0,Wunderground v.1.15,2013-10-05 07:44:00,
2013-10-05 03:51:00,63.2,62.3,30.07,SW,215,0.0,0.0,97,0.00,,,0.00,0,Wunderground v.1.15,2013-10-05 07:51:00,
2013-10-05 03:56:00,63.2,62.3,30.07,SW,215,0.0,0.0,97,0.00,,,0.00,0,Wunderground v.1.15,2013-10-05 07:56:00,
2013-10-05 04:02:00,63.1,62.2,30.07,SW,215,0.0,0.0,97,0.00,,,0.00,0,Wunderground v.1.15,2013-10-05 08:02:00,
2013-10-05 04:08:00,62.9,62.0,30.07,SW,215,0.0,0.0,97,0.00,,,0.00,0,Wunderground v.1.15,2013-10-05 08:08:00,
2013-10-05 04:14:00,62.9,62.0,30.07,SW,215,0.0,0.0,97,0.00,,,0.00,0,Wunderground v.1.15,2013-10-05 08:14:00,
2013-10-05 04:20:00,62.7,61.8,30.07,SW,215,0.0,0.0,97,0.00,,,0.00,0,Wunderground v.1.15,2013-10-05 08:20:00,
2013-10-05 04:26:00,62.6,61.7,30.07,SW,215,0.0,0.0,97,0.00,,,0.00,0,Wunderground v.1.15,2013-10-05 08:26:00,
2013-10-05 04:32:00,62.4,61.5,30.07,SW,215,0.0,0.0,97,0.00,,,0.00,0,Wunderground v.1.15,2013-10-05 08:32:00,
2013-10-05 04:38:00,62.4,61.5,30.07,SW,215,0.0,0.0,97,0.00,,,0.00,0,Wunderground v.1.15,2013-10-05 08:38:00,
2013-10-05 04:44:00,62.3,61.4,30.07,SW,215,0.0,0.0,97,0.00,,,0.00,0,Wunderground v.1.15,2013-10-05 08:44:00,
2013-10-05 04:50:00,62.3,61.4,30.07,SW,215,0.0,0.0,97,0.00,,,0.00,0,Wunderground v.1.15,2013-10-05 08:50:00,
2013-10-05 04:56:00,62.3,61.4,30.07,SW,215,0.0,0.0,97,0.00,,,0.00,0,Wunderground v.1.15,2013-10-05 08:56:00,
2013-10-05 05:02:00,62.1,61.2,30.07,SW,215,0.0,0.0,97,0.00,,,0.00,0,Wunderground v.1.15,2013-10-05 09:02:00,
2013-10-05 05:08:00,62.1,61.2,30.07,SW,215,0.0,0.0,97,0.00,,,0.00,0,Wunderground v.1.15,2013-10-05 09:08:00,
2013-10-05 05:14:00,62.1,61.2,30.07,SW,215,0.0,0.0,97,0.00,,,0.00,0,Wunderground v.1.15,2013-10-05 09:14:00,
2013-10-05 05:21:00,62.1,61.2,30.08,SW,215,0.0,0.0,97,0.00,,,0.00,0,Wunderground v.1.15,2013-10-05 09:21:00,
2013-10-05 05:26:00,62.1,61.2,30.08,SW,215,0.0,0.0,97,0.00,,,0.00,0,Wunderground v.1.15,2013-10-05 09:26:00,
2013-10-05 05:32:00,62.0,61.1,30.08,SW,215,0.0,0.0,97,0.00,,,0.00,0,Wunderground v.1.15,2013-10-05 09:32:00,
2013-10-05 05:38:00,61.8,60.9,30.08,SW,215,0.0,0.0,97,0.00,,,0.00,0,Wunderground v.1.15,2013-10-05 09:38:00,
2013-10-05 05:44:00,61.6,60.7,30.08,SW,215,0.0,0.0,97,0.00,,,0.00,0,Wunderground v.1.15,2013-10-05 09:44:00,
2013-10-05 05:50:00,61.5,60.6,30.09,SW,215,0.0,0.0,97,0.00,,,0.00,0,Wunderground v.1.15,2013-10-05 09:50:00,
2013-10-05 05:56:00,61.5,60.6,30.09,SW,215,0.0,0.0,97,0.00,,,0.00,0,Wunderground v.1.15,2013-10-05 09:56:00,
2013-10-05 06:02:00,61.3,60.4,30.09,SW,215,0.0,0.0,97,0.00,,,0.00,0,Wunderground v.1.15,2013-10-05 10:02:00,
2013-10-05 06:08:00,61.2,60.6,30.09,SW,215,0.0,0.0,98,0.00,,,0.00,0,Wunderground v.1.15,2013-10-05 10:08:00,
2013-10-05 06:14:00,61.2,60.6,30.09,SW,215,0.0,0.0,98,0.00,,,0.00,0,Wunderground v.1.15,2013-10-05 10:14:00,
2013-10-05 06:20:00,61.2,60.6,30.09,SW,215,0.0,0.0,98,0.00,,,0.00,0,Wunderground v.1.15,2013-10-05 10:20:00,
2013-10-05 06:26:00,61.2,60.6,30.09,SW,215,0.0,0.0,98,0.00,,,0.00,0,Wunderground v.1.15,2013-10-05 10:26:00,
2013-10-05 06:32:00,61.0,60.4,30.09,SW,215,0.0,0.0,98,0.00,,,0.00,0,Wunderground v.1.15,2013-10-05 10:32:00,
2013-10-05 06:38:00,61.0,60.4,30.09,SW,215,0.0,0.0,98,0.00,,,0.00,0,Wunderground v.1.15,2013-10-05 10:38:00,
2013-10-05 06:44:00,60.9,60.3,30.09,SW,215,0.0,0.0,98,0.00,,,0.00,0,Wunderground v.1.15,2013-10-05 10:44:00,
2013-10-05 06:51:00,60.9,60.3,30.10,SW,215,0.0,0.0,98,0.00,,,0.00,0,Wunderground v.1.15,2013-10-05 10:51:00,
2013-10-05 06:56:00,60.9,60.3,30.10,SW,215,0.0,0.0,98,0.00,,,0.00,0,Wunderground v.1.15,2013-10-05 10:56:00,
2013-10-05 07:02:00,60.7,60.1,30.10,SW,215,0.0,0.0,98,0.00,,,0.00,0,Wunderground v.1.15,2013-10-05 11:02:00,
2013-10-05 07:08:00,60.7,60.1,30.10,SW,215,0.0,0.0,98,0.00,,,0.00,0,Wunderground v.1.15,2013-10-05 11:08:00,
2013-10-05 07:14:00,60.5,59.9,30.10,SW,215,0.0,0.0,98,0.00,,,0.00,5,Wunderground v.1.15,2013-10-05 11:14:00,
2013-10-05 07:20:00,60.5,59.9,30.10,SW,215,0.0,0.0,98,0.00,,,0.00,7,Wunderground v.1.15,2013-10-05 11:20:00,
2013-10-05 07:26:00,60.5,59.9,30.10,SW,215,0.0,0.0,98,0.00,,,0.00,11,Wunderground v.1.15,2013-10-05 11:26:00,
2013-10-05 07:32:00,60.5,59.9,30.10,SW,215,0.0,0.0,98,0.00,,,0.00,14,Wunderground v.1.15,2013-10-05 11:32:00,
2013-10-05 07:38:00,60.5,59.9,30.10,SW,215,0.0,0.0,98,0.00,,,0.00,16,Wunderground v.1.15,2013-10-05 11:38:00,
2013-10-05 07:44:00,60.7,60.1,30.10,SW,215,0.0,0.0,98,0.00,,,0.00,21,Wunderground v.1.15,2013-10-05 11:44:00,
2013-10-05 07:51:00,60.9,60.3,30.11,SW,215,0.0,0.0,98,0.00,,,0.00,23,Wunderground v.1.15,2013-10-05 11:51:00,
2013-10-05 07:56:00,60.9,60.3,30.11,SW,215,0.0,0.0,98,0.00,,,0.00,26,Wunderground v.1.15,2013-10-05 11:56:00,
2013-10-05 08:02:00,61.0,60.4,30.11,SW,215,0.0,0.0,98,0.00,,,0.00,30,Wunderground v.1.15,2013-10-05 12:02:00,
2013-10-05 08:08:00,61.3,61.0,30.11,SW,215,0.0,0.0,99,0.00,,,0.00,33,Wunderground v.1.15,2013-10-05 12:08:00,
2013-10-05 08:14:00,61.6,61.3,30.11,SW,215,0.0,0.0,99,0.00,,,0.00,37,Wunderground v.1.15,2013-10-05 12:14:00,
2013-10-05 08:20:00,62.0,61.7,30.11,SW,215,0.0,0.0,99,0.00,,,0.00,39,Wunderground v.1.15,2013-10-05 12:20:00,
2013-10-05 08:26:00,62.4,62.1,30.11,SW,215,0.0,0.0,99,0.00,,,0.00,40,Wunderground v.1.15,2013-10-05 12:26:00,
2013-10-05 08:32:00,62.7,62.4,30.11,SW,215,0.0,0.0,99,0.00,,,0.00,40,Wunderground v.1.15,2013-10-05 12:32:00,
2013-10-05 08:38:00,63.2,62.9,30.11,SW,215,0.0,0.0,99,0.00,,,0.00,46,Wunderground v.1.15,2013-10-05 12:38:00,
2013-10-05 08:44:00,63.9,63.6,30.11,SW,215,0.0,0.0,99,0.00,,,0.00,51,Wunderground v.1.15,2013-10-05 12:44:00,
2013-10-05 08:50:00,64.5,64.5,30.11,SW,215,0.0,0.0,100,0.00,,,0.00,48,Wunderground v.1.15,2013-10-05 12:50:00,
2013-10-05 08:56:00,65.0,65.0,30.11,SW,215,0.0,0.0,100,0.00,,,0.00,51,Wunderground v.1.15,2013-10-05 12:56:00,
2013-10-05 09:02:00,65.6,65.6,30.11,SW,215,0.0,0.0,100,0.00,,,0.00,53,Wunderground v.1.15,2013-10-05 13:02:00,
2013-10-05 09:08:00,67.1,67.1,30.11,SW,215,0.0,0.0,100,0.00,,,0.00,252,Wunderground v.1.15,2013-10-05 13:08:00,
2013-10-05 09:14:00,68.8,68.5,30.11,SW,215,0.0,0.0,99,0.00,,,0.00,282,Wunderground v.1.15,2013-10-05 13:14:00,
2013-10-05 09:20:00,70.4,68.9,30.11,SW,215,0.0,0.0,95,0.00,,,0.00,299,Wunderground v.1.15,2013-10-05 13:20:00,
2013-10-05 09:26:00,72.3,68.2,30.11,SW,215,0.0,0.0,87,0.00,,,0.00,317,Wunderground v.1.15,2013-10-05 13:26:00,
2013-10-05 09:32:00,74.2,68.3,30.11,SW,215,0.0,0.0,82,0.00,,,0.00,348,Wunderground v.1.15,2013-10-05 13:32:00,
2013-10-05 09:38:00,75.6,68.6,30.11,SW,215,0.0,0.0,79,0.00,,,0.00,373,Wunderground v.1.15,2013-10-05 13:38:00,
2013-10-05 09:44:00,76.5,68.4,30.11,SW,215,0.0,0.0,76,0.00,,,0.00,389,Wunderground v.1.15,2013-10-05 13:44:00,
2013-10-05 09:50:00,77.4,67.3,30.10,SW,215,0.0,0.0,71,0.00,,,0.00,408,Wunderground v.1.15,2013-10-05 13:50:00,
2013-10-05 09:56:00,77.9,67.3,30.10,SW,215,0.0,1.0,70,0.00,,,0.00,426,Wunderground v.1.15,2013-10-05 13:56:00,
2013-10-05 10:02:00,78.8,68.6,30.10,SW,215,0.0,0.0,71,0.00,,,0.00,443,Wunderground v.1.15,2013-10-05 14:02:00,
2013-10-05 10:08:00,79.6,69.4,30.10,SW,215,0.0,0.0,71,0.00,,,0.00,461,Wunderground v.1.15,2013-10-05 14:08:00,
2013-10-05 10:14:00,80.5,70.6,30.10,SW,215,0.0,1.0,72,0.00,,,0.00,445,Wunderground v.1.15,2013-10-05 14:14:00,
2013-10-05 10:20:00,81.1,70.0,30.10,SW,215,1.0,1.0,69,0.00,,,0.00,491,Wunderground v.1.15,2013-10-05 14:20:00,
2013-10-05 10:26:00,81.2,69.2,30.10,SW,215,1.0,1.0,67,0.00,,,0.00,507,Wunderground v.1.15,2013-10-05 14:26:00,
2013-10-05 10:32:00,81.8,69.8,30.10,SW,215,0.0,2.0,67,0.00,,,0.00,526,Wunderground v.1.15,2013-10-05 14:32:00,
2013-10-05 10:38:00,82.6,70.1,30.10,SW,215,0.0,2.0,66,0.00,,,0.00,538,Wunderground v.1.15,2013-10-05 14:38:00,
2013-10-05 10:44:00,83.0,69.1,30.10,SW,215,0.0,1.0,63,0.00,,,0.00,547,Wunderground v.1.15,2013-10-05 14:44:00,
2013-10-05 10:50:00,83.8,70.8,30.10,SW,215,1.0,2.0,65,0.00,,,0.00,558,Wunderground v.1.15,2013-10-05 14:50:00,
2013-10-05 10:56:00,84.1,68.7,30.10,SW,215,2.0,2.0,60,0.00,,,0.00,572,Wunderground v.1.15,2013-10-05 14:56:00,
2013-10-05 11:02:00,84.5,69.6,30.09,SW,215,2.0,2.0,61,0.00,,,0.00,570,Wunderground v.1.15,2013-10-05 15:02:00,
2013-10-05 11:08:00,85.3,68.3,30.09,SW,215,2.0,2.0,57,0.00,,,0.00,593,Wunderground v.1.15,2013-10-05 15:08:00,
2013-10-05 11:14:00,85.9,69.9,30.09,SW,215,2.0,5.0,59,0.00,,,0.00,607,Wunderground v.1.15,2013-10-05 15:14:00,
2013-10-05 11:20:00,85.7,67.7,30.09,SW,215,2.0,2.0,55,0.00,,,0.00,612,Wunderground v.1.15,2013-10-05 15:20:00,
2013-10-05 11:26:00,86.1,69.1,30.09,SW,215,2.0,5.0,57,0.00,,,0.00,619,Wunderground v.1.15,2013-10-05 15:26:00,
2013-10-05 11:32:00,86.7,69.1,30.08,South,184,2.0,2.0,56,0.00,,,0.00,628,Wunderground v.1.15,2013-10-05 15:32:00,
2013-10-05 11:38:00,86.5,68.9,30.08,SSW,195,2.0,3.0,56,0.00,,,0.00,646,Wunderground v.1.15,2013-10-05 15:38:00,
2013-10-05 11:44:00,87.0,68.3,30.08,SW,219,3.0,5.0,54,0.00,,,0.00,648,Wunderground v.1.15,2013-10-05 15:44:00,
2013-10-05 11:50:00,87.2,68.5,30.08,SW,219,2.0,2.0,54,0.00,,,0.00,656,Wunderground v.1.15,2013-10-05 15:50:00,
2013-10-05 11:56:00,87.8,69.1,30.08,SW,234,2.0,5.0,54,0.00,,,0.00,656,Wunderground v.1.15,2013-10-05 15:56:00,
2013-10-05 12:02:00,87.8,69.1,30.08,SW,222,3.0,3.0,54,0.00,,,0.00,656,Wunderground v.1.15,2013-10-05 16:02:00,
2013-10-05 12:08:00,88.0,69.3,30.08,SW,222,2.0,3.0,54,0.00,,,0.00,656,Wunderground v.1.15,2013-10-05 16:08:00,
2013-10-05 12:14:00,88.2,69.5,30.08,SSW,209,2.0,5.0,54,0.00,,,0.00,656,Wunderground v.1.15,2013-10-05 16:14:00,
2013-10-05 12:21:00,88.4,69.6,30.08,SSW,193,3.0,5.0,54,0.00,,,0.00,656,Wunderground v.1.15,2013-10-05 16:21:00,
2013-10-05 12:26:00,88.8,67.2,30.08,SW,236,2.0,5.0,49,0.00,,,0.00,686,Wunderground v.1.15,2013-10-05 16:26:00,
2013-10-05 12:32:00,89.0,67.4,30.07,SSE,150,2.0,2.0,49,0.00,,,0.00,691,Wunderground v.1.15,2013-10-05 16:32:00,
2013-10-05 12:38:00,89.0,66.8,30.07,WNW,291,3.0,3.0,48,0.00,,,0.00,699,Wunderground v.1.15,2013-10-05 16:38:00,
2013-10-05 12:44:00,88.4,64.4,30.07,SSW,213,1.0,3.0,45,0.00,,,0.00,697,Wunderground v.1.15,2013-10-05 16:44:00,
2013-10-05 12:50:00,89.0,64.9,30.07,South,189,3.0,5.0,45,0.00,,,0.00,700,Wunderground v.1.15,2013-10-05 16:50:00,
2013-10-05 12:56:00,89.3,66.4,30.07,SE,130,4.0,5.0,47,0.00,,,0.00,699,Wunderground v.1.15,2013-10-05 16:56:00,
2013-10-05 13:02:00,89.0,62.9,30.07,SSW,195,3.0,3.0,42,0.00,,,0.00,686,Wunderground v.1.15,2013-10-05 17:02:00,
2013-10-05 13:08:00,89.0,63.6,30.07,SE,143,2.0,3.0,43,0.00,,,0.00,699,Wunderground v.1.15,2013-10-05 17:08:00,
2013-10-05 13:14:00,89.7,65.5,30.07,SW,233,2.0,5.0,45,0.00,,,0.00,695,Wunderground v.1.15,2013-10-05 17:14:00,
2013-10-05 13:20:00,89.7,64.2,30.06,WNW,299,3.0,5.0,43,0.00,,,0.00,702,Wunderground v.1.15,2013-10-05 17:20:00,
2013-10-05 13:26:00,89.3,63.2,30.06,SSW,208,4.0,4.0,42,0.00,,,0.00,704,Wunderground v.1.15,2013-10-05 17:26:00,
2013-10-05 13:32:00,89.5,64.7,30.05,SW,223,5.0,5.0,44,0.00,,,0.00,702,Wunderground v.1.15,2013-10-05 17:32:00,
2013-10-05 13:38:00,89.9,65.7,30.05,SSW,202,3.0,5.0,45,0.00,,,0.00,702,Wunderground v.1.15,2013-10-05 17:38:00,
2013-10-05 13:44:00,89.3,63.9,30.05,SW,222,2.0,6.0,43,0.00,,,0.00,714,Wunderground v.1.15,2013-10-05 17:44:00,
2013-10-05 13:51:00,89.3,65.8,30.05,SE,124,4.0,6.0,46,0.00,,,0.00,670,Wunderground v.1.15,2013-10-05 17:51:00,
2013-10-05 13:56:00,89.0,62.2,30.05,WNW,296,3.0,4.0,41,0.00,,,0.00,660,Wunderground v.1.15,2013-10-05 17:56:00,
2013-10-05 14:02:00,88.8,66.0,30.04,SW,219,3.0,6.0,47,0.00,,,0.00,662,Wunderground v.1.15,2013-10-05 18:02:00,
2013-10-05 14:08:00,87.8,64.4,30.04,SW,232,3.0,6.0,46,0.00,,,0.00,120,Wunderground v.1.15,2013-10-05 18:08:00,
2013-10-05 14:14:00,88.6,67.0,30.04,South,186,2.0,3.0,49,0.00,,,0.00,662,Wunderground v.1.15,2013-10-05 18:14:00,
2013-10-05 14:20:00,89.5,67.2,30.04,South,182,3.0,3.0,48,0.00,,,0.00,670,Wunderground v.1.15,2013-10-05 18:20:00,
2013-10-05 14:26:00,89.0,66.8,30.04,ESE,113,4.0,5.0,48,0.00,,,0.00,135,Wunderground v.1.15,2013-10-05 18:26:00,
2013-10-05 14:32:00,88.6,67.0,30.04,SSE,160,3.0,3.0,49,0.00,,,0.00,665,Wunderground v.1.15,2013-10-05 18:32:00,
2013-10-05 14:38:00,87.4,64.7,30.04,SSE,154,2.0,4.0,47,0.00,,,0.00,157,Wunderground v.1.15,2013-10-05 18:38:00,
2013-10-05 14:44:00,86.7,66.4,30.04,SE,127,2.0,3.0,51,0.00,,,0.00,157,Wunderground v.1.15,2013-10-05 18:44:00,
2013-10-05 14:50:00,88.0,65.2,30.04,SSE,160,3.0,5.0,47,0.00,,,0.00,644,Wunderground v.1.15,2013-10-05 18:50:00,
2013-10-05 14:56:00,87.8,65.1,30.04,SW,216,4.0,6.0,47,0.00,,,0.00,109,Wunderground v.1.15,2013-10-05 18:56:00,
2013-10-05 15:02:00,87.2,65.1,30.04,SW,216,2.0,3.0,48,0.00,,,0.00,128,Wunderground v.1.15,2013-10-05 19:02:00,
2013-10-05 15:08:00,87.0,66.1,30.04,ESE,116,1.0,3.0,50,0.00,,,0.00,128,Wunderground v.1.15,2013-10-05 19:08:00,
2013-10-05 15:14:00,88.4,65.6,30.04,SSW,213,2.0,6.0,47,0.00,,,0.00,575,Wunderground v.1.15,2013-10-05 19:14:00,
2013-10-05 15:21:00,89.3,64.5,30.04,SSW,199,3.0,3.0,44,0.00,,,0.00,575,Wunderground v.1.15,2013-10-05 19:21:00,
2013-10-05 15:26:00,88.0,65.2,30.04,SW,227,4.0,4.0,47,0.00,,,0.00,128,Wunderground v.1.15,2013-10-05 19:26:00,
2013-10-05 15:32:00,87.0,64.3,30.04,West,267,3.0,5.0,47,0.00,,,0.00,118,Wunderground v.1.15,2013-10-05 19:32:00,
2013-10-05 15:38:00,86.3,66.6,30.04,SSW,202,1.0,5.0,52,0.00,,,0.00,262,Wunderground v.1.15,2013-10-05 19:38:00,
2013-10-05 15:44:00,87.4,64.7,30.04,SSW,192,2.0,5.0,47,0.00,,,0.00,449,Wunderground v.1.15,2013-10-05 19:44:00,
2013-10-05 15:50:00,88.4,65.0,30.04,WSW,247,3.0,5.0,46,0.00,,,0.00,496,Wunderground v.1.15,2013-10-05 19:50:00,
2013-10-05 15:56:00,88.2,64.2,30.04,SSW,192,3.0,5.0,45,0.00,,,0.00,364,Wunderground v.1.15,2013-10-05 19:56:00,
2013-10-05 16:02:00,88.2,64.2,30.03,South,189,3.0,3.0,45,0.00,,,0.00,178,Wunderground v.1.15,2013-10-05 20:02:00,
2013-10-05 16:08:00,88.2,65.4,30.03,WSW,247,3.0,3.0,47,0.00,,,0.00,151,Wunderground v.1.15,2013-10-05 20:08:00,
2013-10-05 16:14:00,88.2,64.8,30.03,SW,229,2.0,2.0,46,0.00,,,0.00,113,Wunderground v.1.15,2013-10-05 20:14:00,
2013-10-05 16:20:00,88.0,65.2,30.03,SSW,203,2.0,5.0,47,0.00,,,0.00,97,Wunderground v.1.15,2013-10-05 20:20:00,
2013-10-05 16:26:00,87.8,65.1,30.03,SSW,203,3.0,5.0,47,0.00,,,0.00,83,Wunderground v.1.15,2013-10-05 20:26:00,
2013-10-05 16:32:00,87.6,64.9,30.03,WSW,239,2.0,5.0,47,0.00,,,0.00,76,Wunderground v.1.15,2013-10-05 20:32:00,
2013-10-05 16:38:00,87.4,64.1,30.03,SSW,198,1.0,5.0,46,0.00,,,0.00,70,Wunderground v.1.15,2013-10-05 20:38:00,
2013-10-05 16:44:00,87.2,63.9,30.03,SSW,199,3.0,5.0,46,0.00,,,0.00,65,Wunderground v.1.15,2013-10-05 20:44:00,
2013-10-05 16:50:00,87.0,64.9,30.03,SSW,206,4.0,5.0,48,0.00,,,0.00,62,Wunderground v.1.15,2013-10-05 20:50:00,
2013-10-05 16:56:00,86.7,65.3,30.03,SW,220,4.0,7.0,49,0.00,,,0.00,60,Wunderground v.1.15,2013-10-05 20:56:00,
2013-10-05 17:02:00,86.5,64.5,30.03,SW,233,4.0,7.0,48,0.00,,,0.00,56,Wunderground v.1.15,2013-10-05 21:02:00,
2013-10-05 17:08:00,86.3,64.3,30.03,South,189,4.0,9.0,48,0.00,,,0.00,55,Wunderground v.1.15,2013-10-05 21:08:00,
2013-10-05 17:14:00,86.3,64.3,30.03,South,171,3.0,3.0,48,0.00,,,0.00,53,Wunderground v.1.15,2013-10-05 21:14:00,
2013-10-05 17:20:00,86.1,64.7,30.03,SSW,205,3.0,3.0,49,0.00,,,0.00,55,Wunderground v.1.15,2013-10-05 21:20:00,
2013-10-05 17:26:00,85.9,65.1,30.03,SW,226,3.0,3.0,50,0.00,,,0.00,46,Wunderground v.1.15,2013-10-05 21:26:00,
2013-10-05 17:32:00,85.5,64.7,30.03,SSW,200,2.0,2.0,50,0.00,,,0.00,55,Wunderground v.1.15,2013-10-05 21:32:00,
2013-10-05 17:38:00,85.3,64.6,30.03,SSW,213,2.0,2.0,50,0.00,,,0.00,44,Wunderground v.1.15,2013-10-05 21:38:00,
2013-10-05 17:44:00,85.3,65.7,30.03,WSW,248,2.0,2.0,52,0.00,,,0.00,40,Wunderground v.1.15,2013-10-05 21:44:00,
2013-10-05 17:50:00,85.3,65.1,30.03,SW,217,1.0,1.0,51,0.00,,,0.00,39,Wunderground v.1.15,2013-10-05 21:50:00,
2013-10-05 17:56:00,84.9,65.3,30.03,SSW,198,2.0,3.0,52,0.00,,,0.00,37,Wunderground v.1.15,2013-10-05 21:56:00,
2013-10-05 18:02:00,84.9,65.3,30.03,SW,217,2.0,2.0,52,0.00,,,0.00,32,Wunderground v.1.15,2013-10-05 22:02:00,
2013-10-05 18:08:00,84.5,65.5,30.03,SW,217,3.0,5.0,53,0.00,,,0.00,30,Wunderground v.1.15,2013-10-05 22:08:00,
2013-10-05 18:14:00,84.1,65.7,30.03,SSW,193,2.0,5.0,54,0.00,,,0.00,28,Wunderground v.1.15,2013-10-05 22:14:00,
2013-10-05 18:21:00,83.8,65.9,30.03,SSW,193,1.0,1.0,55,0.00,,,0.00,23,Wunderground v.1.15,2013-10-05 22:21:00,
2013-10-05 18:26:00,83.6,66.8,30.03,SSW,193,1.0,1.0,57,0.00,,,0.00,19,Wunderground v.1.15,2013-10-05 22:26:00,
2013-10-05 18:32:00,83.4,66.6,30.03,SSW,193,0.0,2.0,57,0.00,,,0.00,19,Wunderground v.1.15,2013-10-05 22:32:00,
2013-10-05 18:38:00,82.8,66.5,30.03,SSW,193,1.0,2.0,58,0.00,,,0.00,12,Wunderground v.1.15,2013-10-05 22:38:00,
2013-10-05 18:44:00,82.2,66.4,30.03,SSW,193,1.0,2.0,59,0.00,,,0.00,9,Wunderground v.1.15,2013-10-05 22:44:00,
2013-10-05 18:50:00,81.6,66.4,30.03,SSW,193,1.0,2.0,60,0.00,,,0.00,7,Wunderground v.1.15,2013-10-05 22:50:00,
2013-10-05 18:56:00,81.2,66.5,30.03,SSW,193,1.0,2.0,61,0.00,,,0.00,5,Wunderground v.1.15,2013-10-05 22:56:00,
2013-10-05 19:02:00,80.7,66.9,30.03,SSW,193,0.0,0.0,63,0.00,,,0.00,0,Wunderground v.1.15,2013-10-05 23:02:00,
2013-10-05 19:08:00,80.3,67.0,30.03,SSW,193,0.0,0.0,64,0.00,,,0.00,0,Wunderground v.1.15,2013-10-05 23:08:00,
2013-10-05 19:14:00,79.8,67.0,30.03,SSW,193,0.0,1.0,65,0.00,,,0.00,0,Wunderground v.1.15,2013-10-05 23:14:00,
2013-10-05 19:20:00,79.4,67.5,30.03,SSW,193,0.0,2.0,67,0.00,,,0.00,0,Wunderground v.1.15,2013-10-05 23:20:00,
2013-10-05 19:26:00,78.8,67.3,30.03,SSW,193,0.0,2.0,68,0.00,,,0.00,0,Wunderground v.1.15,2013-10-05 23:26:00,
2013-10-05 19:32:00,78.3,67.3,30.03,SSW,193,0.0,0.0,69,0.00,,,0.00,0,Wunderground v.1.15,2013-10-05 23:32:00,
2013-10-05 19:38:00,77.9,67.3,30.03,SSW,193,0.0,0.0,70,0.00,,,0.00,0,Wunderground v.1.15,2013-10-05 23:38:00,
2013-10-05 19:44:00,77.4,67.3,30.03,SSW,193,0.0,0.0,71,0.00,,,0.00,0,Wunderground v.1.15,2013-10-05 23:44:00,
2013-10-05 19:50:00,77.0,67.3,30.03,SSW,193,0.0,0.0,72,0.00,,,0.00,0,Wunderground v.1.15,2013-10-05 23:50:00,
2013-10-05 19:56:00,76.7,67.4,30.03,SSW,193,0.0,0.0,73,0.00,,,0.00,0,Wunderground v.1.15,2013-10-05 23:56:00,
2013-10-05 20:02:00,76.1,67.2,30.04,SSW,193,0.0,0.0,74,0.00,,,0.00,0,Wunderground v.1.15,2013-10-06 00:02:00,
2013-10-05 20:08:00,75.8,67.3,30.04,SSW,193,0.0,0.0,75,0.00,,,0.00,0,Wunderground v.1.15,2013-10-06 00:08:00,
2013-10-05 20:14:00,75.4,67.3,30.04,SSW,193,0.0,2.0,76,0.00,,,0.00,0,Wunderground v.1.15,2013-10-06 00:14:00,
2013-10-05 20:20:00,75.3,67.2,30.04,SSW,193,0.0,0.0,76,0.00,,,0.00,0,Wunderground v.1.15,2013-10-06 00:20:00,
2013-10-05 20:26:00,74.9,67.2,30.04,SSW,193,0.0,1.0,77,0.00,,,0.00,0,Wunderground v.1.15,2013-10-06 00:26:00,
2013-10-05 20:32:00,74.6,67.3,30.04,SSW,193,0.0,0.0,78,0.00,,,0.00,0,Wunderground v.1.15,2013-10-06 00:32:00,
2013-10-05 20:38:00,74.2,66.9,30.04,SSW,193,0.0,0.0,78,0.00,,,0.00,0,Wunderground v.1.15,2013-10-06 00:38:00,
2013-10-05 20:44:00,74.0,67.1,30.04,SSW,193,0.0,0.0,79,0.00,,,0.00,0,Wunderground v.1.15,2013-10-06 00:44:00,
2013-10-05 20:51:00,73.7,66.8,30.04,SSW,193,0.0,0.0,79,0.00,,,0.00,0,Wunderground v.1.15,2013-10-06 00:51:00,
2013-10-05 20:56:00,73.5,66.9,30.04,SSW,193,0.0,0.0,80,0.00,,,0.00,0,Wunderground v.1.15,2013-10-06 00:56:00,
2013-10-05 21:02:00,73.2,66.7,30.05,SSW,193,0.0,0.0,80,0.00,,,0.00,0,Wunderground v.1.15,2013-10-06 01:02:00,
2013-10-05 21:08:00,73.0,66.8,30.05,SSW,193,0.0,0.0,81,0.00,,,0.00,0,Wunderground v.1.15,2013-10-06 01:08:00,
2013-10-05 21:14:00,72.7,66.9,30.05,SSW,193,0.0,0.0,82,0.00,,,0.00,0,Wunderground v.1.15,2013-10-06 01:14:00,
2013-10-05 21:20:00,72.5,66.7,30.05,SSW,193,0.0,0.0,82,0.00,,,0.00,0,Wunderground v.1.15,2013-10-06 01:20:00,
2013-10-05 21:26:00,72.1,66.6,30.05,SSW,193,0.0,0.0,83,0.00,,,0.00,0,Wunderground v.1.15,2013-10-06 01:26:00,
2013-10-05 21:32:00,72.0,66.9,30.05,SSW,193,0.0,0.0,84,0.00,,,0.00,0,Wunderground v.1.15,2013-10-06 01:32:00,
2013-10-05 21:38:00,71.8,66.7,30.05,SSW,193,0.0,0.0,84,0.00,,,0.00,0,Wunderground v.1.15,2013-10-06 01:38:00,
2013-10-05 21:44:00,71.5,66.8,30.05,SSW,193,0.0,0.0,85,0.00,,,0.00,0,Wunderground v.1.15,2013-10-06 01:44:00,
2013-10-05 21:50:00,71.3,66.6,30.05,SSW,193,0.0,0.0,85,0.00,,,0.00,0,Wunderground v.1.15,2013-10-06 01:50:00,
2013-10-05 21:56:00,71.1,66.7,30.05,SSW,193,0.0,0.0,86,0.00,,,0.00,0,Wunderground v.1.15,2013-10-06 01:56:00,
2013-10-05 22:02:00,70.9,66.5,30.05,SSW,193,0.0,0.0,86,0.00,,,0.00,0,Wunderground v.1.15,2013-10-06 02:02:00,
2013-10-05 22:08:00,70.6,66.5,30.05,SSW,193,0.0,2.0,87,0.00,,,0.00,0,Wunderground v.1.15,2013-10-06 02:08:00,
2013-10-05 22:14:00,70.4,66.3,30.05,SSW,193,1.0,1.0,87,0.00,,,0.00,0,Wunderground v.1.15,2013-10-06 02:14:00,
2013-10-05 22:20:00,70.3,66.6,30.06,SSW,193,1.0,2.0,88,0.00,,,0.00,0,Wunderground v.1.15,2013-10-06 02:20:00,
2013-10-05 22:26:00,70.1,66.4,30.06,SSW,193,1.0,2.0,88,0.00,,,0.00,0,Wunderground v.1.15,2013-10-06 02:26:00,
2013-10-05 22:32:00,70.1,66.4,30.06,SSW,193,1.0,2.0,88,0.00,,,0.00,0,Wunderground v.1.15,2013-10-06 02:32:00,
2013-10-05 22:38:00,70.1,66.4,30.06,SW,223,1.0,2.0,88,0.00,,,0.00,0,Wunderground v.1.15,2013-10-06 02:38:00,
2013-10-05 22:44:00,70.1,66.4,30.06,SW,223,1.0,1.0,88,0.00,,,0.00,0,Wunderground v.1.15,2013-10-06 02:44:00,
2013-10-05 22:50:00,70.3,66.2,30.06,SW,223,1.0,1.0,87,0.00,,,0.00,0,Wunderground v.1.15,2013-10-06 02:50:00,
2013-10-05 22:56:00,70.3,66.2,30.06,SW,223,1.0,1.0,87,0.00,,,0.00,0,Wunderground v.1.15,2013-10-06 02:56:00,
2013-10-05 23:02:00,70.1,66.0,30.06,SW,223,0.0,0.0,87,0.00,,,0.00,0,Wunderground v.1.15,2013-10-06 03:02:00,
2013-10-05 23:08:00,70.1,66.0,30.06,SW,223,0.0,0.0,87,0.00,,,0.00,0,Wunderground v.1.15,2013-10-06 03:08:00,
2013-10-05 23:14:00,69.9,65.9,30.06,SW,223,0.0,2.0,87,0.00,,,0.00,0,Wunderground v.1.15,2013-10-06 03:14:00,
2013-10-05 23:20:00,69.9,66.2,30.06,SSW,210,2.0,2.0,88,0.00,,,0.00,0,Wunderground v.1.15,2013-10-06 03:20:00,
2013-10-05 23:26:00,70.1,66.0,30.06,SW,216,3.0,3.0,87,0.00,,,0.00,0,Wunderground v.1.15,2013-10-06 03:26:00,
2013-10-05 23:32:00,70.3,66.2,30.06,SSW,212,2.0,5.0,87,0.00,,,0.00,0,Wunderground v.1.15,2013-10-06 03:32:00,
2013-10-05 23:38:00,70.4,66.0,30.06,SSW,192,2.0,5.0,86,0.00,,,0.00,0,Wunderground v.1.15,2013-10-06 03:38:00,
2013-10-05 23:44:00,70.6,66.2,30.06,SSW,203,2.0,3.0,86,0.00,,,0.00,0,Wunderground v.1.15,2013-10-06 03:44:00,
2013-10-05 23:50:00,70.6,66.2,30.05,SSW,203,2.0,3.0,86,0.00,,,0.00,0,Wunderground v.1.15,2013-10-06 03:50:00,
2013-10-05 23:56:00,70.6,65.9,30.05,SW,222,2.0,2.0,85,0.00,,,0.00,0,Wunderground v.1.15,2013-10-06 03:56:00,